When you browse on this site, cookies collect data to enhance your experience and personalize the content and advertising you see.
Visit our Privacy Policy to learn more. By continuing to use the site, you agree to this use of cookies and data.
  • In Spain
  • List of Countries
  • For 7 days
  • Water Temperature
  • Weather Map
  • Weather Widgets
  • user-avatar
    Login

    Hourly Weather Bannyy Ostrov

    Today, 7 June, Sunday

    Time Temperature Precipitation Wind Pressure Humidity
    00:00 +15°C° 0 mm 1 mps 742 mmHg 93%
    01:00 +14°C° 0 mm 1 mps 742 mmHg 93%
    02:00 +14°C° 0 mm 1 mps 743 mmHg 93%
    03:00 +14°C° 0 mm 1 mps 743 mmHg 93%
    04:00 +14°C° 0 mm 1 mps 744 mmHg 92%
    05:00 +14°C° 0 mm 0 mps 744 mmHg 91%
    06:00 +16°C° 0 mm 1 mps 744 mmHg 87%
    07:00 +19°C° 0 mm 1 mps 744 mmHg 82%
    08:00 +21°C° 0 mm 1 mps 745 mmHg 78%
    09:00 +22°C° 0 mm 1 mps 745 mmHg 72%
    10:00 +23°C° 0 mm 1 mps 745 mmHg 67%
    11:00 +25°C° 0 mm 1 mps 746 mmHg 61%
    12:00 +25°C° 0 mm 2 mps 745 mmHg 59%
    13:00 +26°C° 0 mm 2 mps 745 mmHg 58%
    14:00 +26°C° 0 mm 2 mps 745 mmHg 56%
    15:00 +26°C° 0 mm 2 mps 745 mmHg 60%
    16:00 +25°C° 0 mm 2 mps 745 mmHg 64%
    17:00 +25°C° 0 mm 2 mps 744 mmHg 68%
    18:00 +24°C° 0 mm 2 mps 744 mmHg 73%
    19:00 +21°C° 0 mm 2 mps 744 mmHg 78%
    20:00 +19°C° 0 mm 2 mps 744 mmHg 83%
    21:00 +19°C° 0 mm 2 mps 744 mmHg 84%
    22:00 +18°C° 0 mm 2 mps 744 mmHg 85%
    23:00 +17°C° 0 mm 2 mps 744 mmHg 86%

    Tomorrow, 8 June, Monday

    Time Temperature Precipitation Wind Pressure Humidity
    00:00 +17°C° 0 mm 2 mps 744 mmHg 88%
    01:00 +17°C° 0 mm 2 mps 744 mmHg 90%
    02:00 +17°C° 0 mm 2 mps 744 mmHg 92%
    03:00 +17°C° 0 mm 2 mps 744 mmHg 93%
    04:00 +17°C° 0 mm 2 mps 744 mmHg 93%
    05:00 +18°C° 0 mm 2 mps 744 mmHg 93%
    06:00 +20°C° 0 mm 2 mps 744 mmHg 89%
    07:00 +21°C° 0 mm 3 mps 744 mmHg 85%
    08:00 +24°C° 0 mm 3 mps 745 mmHg 81%
    09:00 +25°C° 0 mm 3 mps 745 mmHg 77%
    10:00 +26°C° 0 mm 4 mps 745 mmHg 72%
    11:00 +27°C° 0 mm 4 mps 745 mmHg 68%
    12:00 +27°C° 0 mm 4 mps 745 mmHg 67%
    13:00 +28°C° 0 mm 4 mps 744 mmHg 65%
    14:00 +28°C° 0 mm 4 mps 744 mmHg 63%
    15:00 +28°C° 0 mm 3 mps 744 mmHg 65%
    16:00 +28°C° 0 mm 3 mps 744 mmHg 67%
    17:00 +27°C° 0 mm 2 mps 744 mmHg 70%
    18:00 +26°C° 0 mm 2 mps 744 mmHg 75%
    19:00 +24°C° 0 mm 2 mps 744 mmHg 80%
    20:00 +22°C° 0 mm 1 mps 744 mmHg 85%
    21:00 +21°C° 0 mm 1 mps 744 mmHg 86%
    22:00 +21°C° 0 mm 1 mps 744 mmHg 88%
    23:00 +20°C° 0 mm 1 mps 744 mmHg 89%

    Day after tomorrow, 9 June, Tuesday

    Time Temperature Precipitation Wind Pressure Humidity
    00:00 +18°C° 0 mm 2 mps 744 mmHg 90%
    01:00 +18°C° 0 mm 2 mps 744 mmHg 91%
    02:00 +18°C° 0 mm 2 mps 744 mmHg 92%
    03:00 +18°C° 0 mm 2 mps 744 mmHg 92%
    04:00 +18°C° 0 mm 2 mps 744 mmHg 92%
    05:00 +19°C° 0 mm 2 mps 744 mmHg 92%
    06:00 +20°C° 0 mm 2 mps 744 mmHg 87%
    07:00 +23°C° 0 mm 2 mps 744 mmHg 82%
    08:00 +25°C° 0 mm 2 mps 744 mmHg 78%
    09:00 +26°C° 0.1 mm 2 mps 744 mmHg 74%
    10:00 +27°C° 0.1 mm 2 mps 745 mmHg 71%
    11:00 +28°C° 0.1 mm 2 mps 745 mmHg 67%
    12:00 +28°C° 0.4 mm 3 mps 745 mmHg 67%
    13:00 +28°C° 0.4 mm 3 mps 744 mmHg 66%
    14:00 +28°C° 0.4 mm 3 mps 744 mmHg 65%
    15:00 +28°C° 0.4 mm 2 mps 744 mmHg 67%
    16:00 +28°C° 0.4 mm 2 mps 744 mmHg 69%
    17:00 +28°C° 0.4 mm 1 mps 744 mmHg 71%
    18:00 +26°C° 0.1 mm 1 mps 744 mmHg 76%
    19:00 +24°C° 0.1 mm 1 mps 744 mmHg 81%
    20:00 +23°C° 0.1 mm 1 mps 744 mmHg 86%
    21:00 +22°C° 0 mm 1 mps 744 mmHg 88%
    22:00 +21°C° 0 mm 1 mps 744 mmHg 89%
    23:00 +21°C° 0 mm 1 mps 744 mmHg 91%

    10 June, Wednesday

    Time Temperature Precipitation Wind Pressure Humidity
    00:00 +20°C° 0 mm 1 mps 744 mmHg 92%
    01:00 +20°C° 0 mm 1 mps 744 mmHg 92%
    02:00 +19°C° 0 mm 1 mps 744 mmHg 93%
    03:00 +20°C° 0 mm 1 mps 744 mmHg 93%
    04:00 +20°C° 0 mm 1 mps 744 mmHg 93%
    05:00 +20°C° 0 mm 1 mps 744 mmHg 93%
    06:00 +22°C° 0 mm 1 mps 744 mmHg 88%
    07:00 +24°C° 0 mm 1 mps 745 mmHg 83%
    08:00 +25°C° 0 mm 1 mps 745 mmHg 78%
    09:00 +26°C° 0.2 mm 1 mps 745 mmHg 73%
    10:00 +27°C° 0.2 mm 1 mps 745 mmHg 68%
    11:00 +28°C° 0.2 mm 1 mps 745 mmHg 64%
    12:00 +28°C° 0.2 mm 2 mps 744 mmHg 65%
    13:00 +28°C° 0.2 mm 2 mps 744 mmHg 66%
    14:00 +28°C° 0.2 mm 2 mps 744 mmHg 67%
    15:00 +28°C° 0.3 mm 2 mps 744 mmHg 68%
    16:00 +28°C° 0.3 mm 2 mps 744 mmHg 70%
    17:00 +28°C° 0.3 mm 2 mps 743 mmHg 72%
    18:00 +26°C° 0.5 mm 2 mps 743 mmHg 77%
    19:00 +24°C° 0.5 mm 2 mps 743 mmHg 83%
    20:00 +23°C° 0.5 mm 2 mps 743 mmHg 89%
    21:00 +21°C° 0 mm 2 mps 743 mmHg 90%
    22:00 +20°C° 0 mm 2 mps 743 mmHg 92%
    23:00 +19°C° 0 mm 2 mps 744 mmHg 93%

    11 June, Thursday

    Time Temperature Precipitation Wind Pressure Humidity
    00:00 +20°C° 0 mm 1 mps 744 mmHg 93%
    01:00 +20°C° 0 mm 1 mps 744 mmHg 94%
    02:00 +19°C° 0 mm 1 mps 743 mmHg 94%
    03:00 +19°C° 0 mm 1 mps 743 mmHg 94%
    04:00 +20°C° 0 mm 1 mps 743 mmHg 94%
    05:00 +19°C° 0 mm 2 mps 743 mmHg 94%
    06:00 +21°C° 0 mm 2 mps 743 mmHg 90%
    07:00 +23°C° 0 mm 2 mps 744 mmHg 85%
    08:00 +25°C° 0 mm 2 mps 744 mmHg 81%
    09:00 +26°C° 0.3 mm 2 mps 744 mmHg 75%
    10:00 +27°C° 0.3 mm 2 mps 744 mmHg 70%
    11:00 +28°C° 0.3 mm 2 mps 744 mmHg 65%
    12:00 +28°C° 0.4 mm 2 mps 743 mmHg 64%
    13:00 +28°C° 0.4 mm 2 mps 743 mmHg 63%
    14:00 +29°C° 0.4 mm 2 mps 743 mmHg 62%
    15:00 +28°C° 0.3 mm 2 mps 743 mmHg 66%
    16:00 +28°C° 0.3 mm 2 mps 742 mmHg 69%
    17:00 +28°C° 0.3 mm 2 mps 742 mmHg 73%
    18:00 +26°C° 0.1 mm 2 mps 742 mmHg 78%
    19:00 +24°C° 0.1 mm 2 mps 742 mmHg 83%
    20:00 +23°C° 0.1 mm 2 mps 742 mmHg 88%
    21:00 +21°C° 0 mm 2 mps 742 mmHg 90%
    22:00 +20°C° 0 mm 2 mps 742 mmHg 92%
    23:00 +19°C° 0 mm 2 mps 743 mmHg 94%

    12 June, Friday

    Time Temperature Precipitation Wind Pressure Humidity
    00:00 +19°C° 0 mm 2 mps 742 mmHg 95%
    01:00 +19°C° 0 mm 2 mps 742 mmHg 95%
    02:00 +18°C° 0 mm 2 mps 742 mmHg 96%
    03:00 +19°C° 0 mm 2 mps 742 mmHg 95%
    04:00 +19°C° 0 mm 2 mps 742 mmHg 95%
    05:00 +19°C° 0 mm 2 mps 742 mmHg 95%
    06:00 +21°C° 0.1 mm 2 mps 742 mmHg 92%
    07:00 +23°C° 0.1 mm 2 mps 742 mmHg 88%
    08:00 +24°C° 0.1 mm 2 mps 742 mmHg 85%
    09:00 +25°C° 0.5 mm 3 mps 742 mmHg 81%
    10:00 +26°C° 0.5 mm 3 mps 742 mmHg 76%
    11:00 +27°C° 0.5 mm 3 mps 742 mmHg 72%
    12:00 +28°C° 0.2 mm 3 mps 742 mmHg 70%
    13:00 +28°C° 0.2 mm 3 mps 742 mmHg 67%
    14:00 +29°C° 0.2 mm 3 mps 742 mmHg 65%
    15:00 +28°C° 0.3 mm 3 mps 742 mmHg 69%
    16:00 +28°C° 0.3 mm 2 mps 741 mmHg 73%
    17:00 +27°C° 0.3 mm 2 mps 741 mmHg 78%
    18:00 +26°C° 0.1 mm 2 mps 741 mmHg 81%
    19:00 +25°C° 0.1 mm 2 mps 741 mmHg 85%
    20:00 +23°C° 0.1 mm 2 mps 741 mmHg 88%
    21:00 +21°C° 0 mm 2 mps 741 mmHg 90%
    22:00 +21°C° 0 mm 2 mps 742 mmHg 92%
    23:00 +20°C° 0 mm 3 mps 742 mmHg 93%
    Show more